User: anonymous   Login
Location: Unspecified
(0.0000°N, 0.0000°E)
Time: 09:23:08
(UTC+00:00)
Language:

PROITERES - Orbit

View from above orbital plane
View from above orbital plane
View from above satellite
View from above satellite

Ground track
Ground track

The orbit data is extracted from the following two-line orbital elements,

1 38756U 12047B   17086.85436688 +.00000159 +00000-0 +30713-4 0  9996
2 38756 098.2564 209.6302 0012751 028.0106 332.1789 14.76331271244840
Epoch (UTC): 27 March 2017 20:30:17
Eccentricity: 0.0012751
inclination: 98.2564°
perigee height: 632 km
apogee height: 650 km
right ascension of ascending node: 209.6302°
argument of perigee: 28.0106°
revolutions per day: 14.76331271
mean anomaly at epoch: 332.1789°
orbit number at epoch: 24484

The dashed part of the orbit path shows where the satellite is in the earth's shadow,  

DLR